| time (UTC) | temp F | wind direction | speed MPH | gust MPH | rain 1hr in | rain 24hr in | rain mn in | humidity % | barometer mb |
| 20260504214004 | 72 | 257 | 7.0 | 20.0 | 0.00 | 0.00 | 0.00 | 33 | 1005.6 |
| 20260504213504 | 72 | 262 | 7.0 | 20.0 | 0.00 | 0.00 | 0.00 | 33 | 1005.5 |
| 20260504213003 | 72 | 265 | 7.0 | 16.0 | 0.00 | 0.00 | 0.00 | 33 | 1005.5 |
| 20260504212503 | 72 | 256 | 7.0 | 20.0 | 0.00 | 0.00 | 0.00 | 34 | 1005.6 |
| 20260504212004 | 72 | 231 | 7.0 | 20.0 | 0.00 | 0.00 | 0.00 | 32 | 1005.7 |
| 20260504211525 | 73 | 240 | 7.0 | 22.0 | 0.00 | 0.00 | 0.00 | 32 | 1005.6 |
| 20260504211004 | 73 | 268 | 7.0 | 22.0 | 0.00 | 0.00 | 0.00 | 32 | 1005.6 |
| 20260504210504 | 72 | 260 | 8.0 | 20.0 | 0.00 | 0.00 | 0.00 | 33 | 1005.6 |
| 20260504210024 | 72 | 250 | 6.0 | 20.0 | 0.00 | 0.00 | 0.00 | 32 | 1005.8 |
| 20260504205525 | 72 | 252 | 6.0 | 19.0 | 0.00 | 0.00 | 0.00 | 33 | 1005.7 |
| 20260504205003 | 73 | 263 | 7.0 | 16.0 | 0.00 | 0.00 | 0.00 | 31 | 1005.6 |
| 20260504204503 | 73 | 251 | 7.0 | 15.0 | 0.00 | 0.00 | 0.00 | 31 | 1005.6 |
| 20260504204004 | 73 | 245 | 8.0 | 17.0 | 0.00 | 0.00 | 0.00 | 32 | 1005.7 |
| 20260504203524 | 73 | 262 | 8.0 | 20.0 | 0.00 | 0.00 | 0.00 | 34 | 1005.6 |
| 20260504203003 | 72 | 267 | 7.0 | 20.0 | 0.00 | 0.00 | 0.00 | 32 | 1005.6 |
| 20260504202504 | 73 | 252 | 7.0 | 17.0 | 0.00 | 0.00 | 0.00 | 32 | 1005.5 |
| 20260504202025 | 73 | 243 | 7.0 | 17.0 | 0.00 | 0.00 | 0.00 | 31 | 1005.7 |
| 20260504201504 | 73 | 261 | 9.0 | 19.0 | 0.00 | 0.00 | 0.00 | 32 | 1005.7 |
| 20260504201003 | 73 | 256 | 8.0 | 20.0 | 0.00 | 0.00 | 0.00 | 30 | 1005.6 |
| 20260504200503 | 73 | 249 | 5.0 | 20.0 | 0.00 | 0.00 | 0.00 | 31 | 1005.6 |
| 20260504200004 | 73 | 255 | 6.0 | 13.0 | 0.00 | 0.00 | 0.00 | 31 | 1005.4 |
| 20260504195503 | 72 | 224 | 7.0 | 16.0 | 0.00 | 0.00 | 0.00 | 32 | 1005.6 |
| 20260504195003 | 72 | 216 | 8.0 | 21.0 | 0.00 | 0.00 | 0.00 | 34 | 1005.7 |
| 20260504194504 | 71 | 232 | 8.0 | 21.0 | 0.00 | 0.00 | 0.00 | 32 | 1005.7 |
| 20260504194003 | 71 | 243 | 8.0 | 20.0 | 0.00 | 0.00 | 0.00 | 31 | 1005.8 |
| 20260504193504 | 72 | 235 | 8.0 | 19.0 | 0.00 | 0.00 | 0.00 | 32 | 1005.8 |
| 20260504193004 | 72 | 233 | 6.0 | 17.0 | 0.00 | 0.00 | 0.00 | 32 | 1005.7 |
| 20260504192503 | 73 | 260 | 6.0 | 16.0 | 0.00 | 0.00 | 0.00 | 30 | 1005.7 |
| 20260504192003 | 72 | 245 | 8.0 | 18.0 | 0.00 | 0.00 | 0.00 | 29 | 1005.7 |
| 20260504191504 | 72 | 222 | 8.0 | 18.0 | 0.00 | 0.00 | 0.00 | 31 | 1005.9 |
| 20260504191004 | 72 | 226 | 7.0 | 18.0 | 0.00 | 0.00 | 0.00 | 32 | 1005.7 |
| 20260504190504 | 72 | 243 | 5.0 | 13.0 | 0.00 | 0.00 | 0.00 | 32 | 1005.8 |
| 20260504190004 | 71 | 252 | 5.0 | 14.0 | 0.00 | 0.00 | 0.00 | 31 | 1006.0 |
| 20260504185504 | 71 | 236 | 6.0 | 14.0 | 0.00 | 0.00 | 0.00 | 32 | 1005.9 |
| 20260504185004 | 71 | 218 | 7.0 | 20.0 | 0.00 | 0.00 | 0.00 | 32 | 1006.1 |
| 20260504184525 | 72 | 230 | 9.0 | 20.0 | 0.00 | 0.00 | 0.00 | 31 | 1006.0 |
| 20260504184004 | 72 | 262 | 10.0 | 24.0 | 0.00 | 0.00 | 0.00 | 33 | 1006.3 |
| 20260504183504 | 71 | 268 | 12.0 | 24.0 | 0.00 | 0.00 | 0.00 | 31 | 1006.3 |
| 20260504183004 | 71 | 262 | 12.0 | 26.0 | 0.00 | 0.00 | 0.00 | 33 | 1006.3 |
| 20260504182504 | 71 | 244 | 10.0 | 26.0 | 0.00 | 0.00 | 0.00 | 32 | 1006.4 |
| 20260504182004 | 71 | 215 | 9.0 | 23.0 | 0.00 | 0.00 | 0.00 | 31 | 1006.2 |
| 20260504181504 | 71 | 205 | 8.0 | 23.0 | 0.00 | 0.00 | 0.00 | 33 | 1006.3 |
| 20260504181004 | 71 | 229 | 7.0 | 23.0 | 0.00 | 0.00 | 0.00 | 31 | 1006.2 |
| 20260504180504 | 71 | 231 | 8.0 | 24.0 | 0.00 | 0.00 | 0.00 | 33 | 1006.5 |
| 20260504180004 | 70 | 213 | 10.0 | 24.0 | 0.00 | 0.00 | 0.00 | 31 | 1006.5 |
| 20260504175504 | 70 | 215 | 7.0 | 23.0 | 0.00 | 0.00 | 0.00 | 30 | 1006.3 |
| 20260504175004 | 71 | 239 | 5.0 | 17.0 | 0.00 | 0.00 | 0.00 | 34 | 1006.4 |
| 20260504174525 | 70 | 252 | 7.0 | 20.0 | 0.00 | 0.00 | 0.00 | 33 | 1006.4 |
| 20260504174004 | 70 | 253 | 9.0 | 20.0 | 0.00 | 0.00 | 0.00 | 35 | 1006.5 |
| 20260504173504 | 69 | 241 | 7.0 | 20.0 | 0.00 | 0.00 | 0.00 | 34 | 1006.8 |
| 20260504173004 | 69 | 225 | 8.0 | 25.0 | 0.00 | 0.00 | 0.00 | 33 | 1006.7 |
| 20260504172525 | 69 | 214 | 10.0 | 25.0 | 0.00 | 0.00 | 0.00 | 32 | 1006.8 |
| 20260504172004 | 69 | 209 | 11.0 | 24.0 | 0.00 | 0.00 | 0.00 | 33 | 1006.8 |
| 20260504171504 | 69 | 232 | 10.0 | 22.0 | 0.00 | 0.00 | 0.00 | 33 | 1006.9 |
| 20260504171003 | 69 | 262 | 11.0 | 25.0 | 0.00 | 0.00 | 0.00 | 35 | 1006.7 |
| 20260504170504 | 68 | 255 | 10.0 | 25.0 | 0.00 | 0.00 | 0.00 | 33 | 1007.0 |
| 20260504151003 | 66 | 224 | 7.0 | 16.0 | 0.00 | 0.00 | 0.00 | 43 | 1008.0 |
| 20260504150503 | 65 | 213 | 7.0 | 16.0 | 0.00 | 0.00 | 0.00 | 40 | 1008.1 |
| 20260504141003 | 63 | 266 | 7.0 | 18.0 | 0.00 | 0.00 | 0.00 | 42 | 1008.7 |
| 20260504140503 | 63 | 264 | 9.0 | 18.0 | 0.00 | 0.00 | 0.00 | 40 | 1008.7 |
| 20260504130503 | 58 | 247 | 7.0 | 14.0 | 0.00 | 0.00 | 0.00 | 47 | 1009.5 |
| 20260504110503 | 47 | 0 | 0.0 | 0.0 | 0.00 | 0.03 | 0.00 | 66 | 1009.8 |
| 20260504100503 | 45 | 0 | 0.0 | 0.0 | 0.00 | 0.03 | 0.00 | 70 | 1010.0 |
| 20260504081524 | 44 | 0 | 0.0 | 0.0 | 0.00 | 0.03 | 0.00 | 71 | 1009.9 |
| 20260504081003 | 44 | 0 | 0.0 | 0.0 | 0.00 | 0.03 | 0.00 | 69 | 1010.0 |
| 20260504080503 | 44 | 0 | 0.0 | 0.0 | 0.00 | 0.03 | 0.00 | 67 | 1009.9 |
| 20260504050524 | 37 | 0 | 0.0 | 0.0 | 0.00 | 0.03 | 0.00 | 86 | 1009.8 |
| 20260504050003 | 36 | 0 | 0.0 | 0.0 | 0.00 | 0.03 | 0.00 | 87 | 1009.9 |
| 20260504045503 | 36 | 0 | 0.0 | 0.0 | 0.00 | 0.03 | 0.00 | 88 | 1009.8 |
| 20260504045003 | 36 | 0 | 0.0 | 0.0 | 0.00 | 0.03 | 0.00 | 87 | 1009.9 |
| 20260504044504 | 35 | 0 | 0.0 | 0.0 | 0.00 | 0.03 | 0.00 | 87 | 1010.0 |
| 20260504044003 | 35 | 0 | 0.0 | 0.0 | 0.00 | 0.03 | 0.00 | 87 | 1010.0 |
| 20260504043503 | 35 | 0 | 0.0 | 0.0 | 0.00 | 0.03 | 0.00 | 86 | 1009.9 |
| 20260504043003 | 35 | 0 | 0.0 | 0.0 | 0.00 | 0.03 | 0.00 | 86 | 1009.9 |
| 20260504042503 | 35 | 0 | 0.0 | 0.0 | 0.00 | 0.03 | 0.00 | 85 | 1009.9 |
| 20260504042004 | 36 | 0 | 0.0 | 0.0 | 0.00 | 0.03 | 0.00 | 85 | 1009.8 |
| 20260504041503 | 36 | 0 | 0.0 | 0.0 | 0.00 | 0.03 | 0.00 | 85 | 1009.8 |
| 20260504041003 | 36 | 0 | 0.0 | 0.0 | 0.00 | 0.03 | 0.00 | 84 | 1009.8 |
| 20260504040504 | 36 | 0 | 0.0 | 0.0 | 0.00 | 0.03 | 0.00 | 84 | 1009.8 |
| 20260504040004 | 36 | 0 | 0.0 | 0.0 | 0.00 | 0.03 | 0.00 | 84 | 1009.8 |
| 20260504035524 | 36 | 0 | 0.0 | 0.0 | 0.00 | 0.03 | 0.03 | 84 | 1009.8 |
| 20260504035003 | 36 | 0 | 0.0 | 0.0 | 0.00 | 0.03 | 0.03 | 84 | 1009.7 |
| 20260504034503 | 36 | 0 | 0.0 | 0.0 | 0.00 | 0.03 | 0.03 | 84 | 1009.6 |
| 20260504034003 | 36 | 0 | 0.0 | 0.0 | 0.00 | 0.03 | 0.03 | 84 | 1009.5 |
| 20260504033504 | 36 | 0 | 0.0 | 0.0 | 0.00 | 0.03 | 0.03 | 83 | 1009.5 |
| 20260504033004 | 36 | 0 | 0.0 | 0.0 | 0.00 | 0.03 | 0.03 | 83 | 1009.6 |
| 20260504032503 | 37 | 0 | 0.0 | 0.0 | 0.00 | 0.03 | 0.03 | 83 | 1009.5 |
| 20260504032003 | 37 | 0 | 0.0 | 0.0 | 0.00 | 0.03 | 0.03 | 82 | 1009.6 |
| 20260504031503 | 37 | 0 | 0.0 | 0.0 | 0.00 | 0.03 | 0.03 | 82 | 1009.6 |
| 20260504031003 | 37 | 0 | 0.0 | 0.0 | 0.00 | 0.03 | 0.03 | 82 | 1009.5 |
| 20260504030503 | 37 | 0 | 0.0 | 0.0 | 0.00 | 0.03 | 0.03 | 82 | 1009.6 |
| 20260504030003 | 37 | 0 | 0.0 | 0.0 | 0.00 | 0.03 | 0.03 | 81 | 1009.5 |
| 20260504025503 | 38 | 0 | 0.0 | 0.0 | 0.00 | 0.03 | 0.03 | 80 | 1009.6 |
| 20260504025003 | 38 | 0 | 0.0 | 0.0 | 0.00 | 0.03 | 0.03 | 80 | 1009.5 |
| 20260504024503 | 38 | 0 | 0.0 | 0.0 | 0.00 | 0.03 | 0.03 | 80 | 1009.5 |
| 20260504024003 | 38 | 0 | 0.0 | 0.0 | 0.00 | 0.03 | 0.03 | 79 | 1009.4 |
| 20260504023503 | 38 | 0 | 0.0 | 0.0 | 0.00 | 0.03 | 0.03 | 79 | 1009.4 |
| 20260504023003 | 39 | 0 | 0.0 | 0.0 | 0.00 | 0.03 | 0.03 | 78 | 1009.4 |
| 20260504022503 | 39 | 0 | 0.0 | 0.0 | 0.00 | 0.03 | 0.03 | 77 | 1009.4 |
| 20260504022024 | 39 | 0 | 0.0 | 0.0 | 0.00 | 0.03 | 0.03 | 76 | 1009.5 |
| 20260504021503 | 39 | 0 | 0.0 | 0.0 | 0.00 | 0.03 | 0.03 | 75 | 1009.5 |
| 20260504021003 | 40 | 0 | 0.0 | 0.0 | 0.00 | 0.03 | 0.03 | 74 | 1009.4 |
| 20260504020503 | 40 | 0 | 0.0 | 0.0 | 0.00 | 0.03 | 0.03 | 73 | 1009.3 |
| 20260504020003 | 40 | 0 | 0.0 | 0.0 | 0.00 | 0.03 | 0.03 | 73 | 1009.2 |
| 20260504015524 | 40 | 0 | 0.0 | 0.0 | 0.00 | 0.03 | 0.03 | 73 | 1009.2 |
| 20260504015003 | 40 | 0 | 0.0 | 0.0 | 0.00 | 0.03 | 0.03 | 73 | 1009.2 |
| 20260504014524 | 41 | 0 | 0.0 | 0.0 | 0.00 | 0.03 | 0.03 | 73 | 1009.2 |
| 20260504014003 | 41 | 0 | 0.0 | 0.0 | 0.00 | 0.03 | 0.03 | 71 | 1009.1 |
| 20260504013503 | 42 | 0 | 0.0 | 0.0 | 0.00 | 0.03 | 0.03 | 70 | 1009.1 |
| 20260504013003 | 42 | 0 | 0.0 | 0.0 | 0.00 | 0.03 | 0.03 | 70 | 1009.0 |
| 20260504012504 | 42 | 0 | 0.0 | 0.0 | 0.00 | 0.03 | 0.03 | 69 | 1009.0 |
| 20260504012003 | 42 | 0 | 0.0 | 0.0 | 0.00 | 0.03 | 0.03 | 69 | 1009.0 |
| 20260504011503 | 43 | 0 | 0.0 | 0.0 | 0.00 | 0.03 | 0.03 | 68 | 1009.0 |
| 20260504011024 | 43 | 0 | 0.0 | 0.0 | 0.00 | 0.03 | 0.03 | 68 | 1009.0 |
| 20260504010503 | 43 | 0 | 0.0 | 0.0 | 0.00 | 0.03 | 0.03 | 67 | 1008.8 |
| 20260504010003 | 44 | 0 | 0.0 | 0.0 | 0.00 | 0.03 | 0.03 | 66 | 1008.8 |
| 20260504005524 | 44 | 0 | 0.0 | 0.0 | 0.00 | 0.03 | 0.03 | 65 | 1008.8 |
| 20260504005004 | 44 | 0 | 0.0 | 0.0 | 0.00 | 0.03 | 0.03 | 63 | 1008.8 |
| 20260504004503 | 45 | 0 | 0.0 | 0.0 | 0.00 | 0.03 | 0.03 | 64 | 1008.6 |
| 20260504004003 | 46 | 0 | 0.0 | 0.0 | 0.00 | 0.03 | 0.03 | 62 | 1008.5 |
| 20260504003524 | 46 | 0 | 0.0 | 0.0 | 0.00 | 0.03 | 0.03 | 61 | 1008.4 |
| 20260504003003 | 47 | 0 | 0.0 | 0.0 | 0.00 | 0.03 | 0.03 | 58 | 1008.5 |
| 20260504002504 | 47 | 0 | 0.0 | 0.0 | 0.00 | 0.03 | 0.03 | 58 | 1008.4 |
| 20260504002025 | 48 | 0 | 0.0 | 0.0 | 0.00 | 0.03 | 0.03 | 56 | 1008.2 |
| 20260504001504 | 48 | 0 | 0.0 | 0.0 | 0.00 | 0.03 | 0.03 | 55 | 1008.3 |
| 20260504001004 | 49 | 0 | 0.0 | 0.0 | 0.00 | 0.03 | 0.03 | 53 | 1008.1 |
| 20260504000504 | 49 | 0 | 0.0 | 0.0 | 0.00 | 0.03 | 0.03 | 51 | 1008.2 |
| 20260504000004 | 50 | 0 | 0.0 | 0.0 | 0.00 | 0.03 | 0.03 | 50 | 1008.1 |
| 20260503235504 | 50 | 296 | 0.0 | 1.0 | 0.00 | 0.03 | 0.03 | 48 | 1008.1 |
| 20260503235003 | 51 | 296 | 0.0 | 1.0 | 0.00 | 0.03 | 0.03 | 47 | 1008.2 |
| 20260503234504 | 51 | 294 | 1.0 | 9.0 | 0.00 | 0.03 | 0.03 | 46 | 1008.0 |
| 20260503234004 | 51 | 293 | 2.0 | 9.0 | 0.00 | 0.03 | 0.03 | 46 | 1007.9 |
| 20260503233525 | 51 | 293 | 3.0 | 10.0 | 0.00 | 0.03 | 0.03 | 46 | 1008.0 |
| 20260503233004 | 52 | 293 | 3.0 | 10.0 | 0.00 | 0.03 | 0.03 | 45 | 1007.9 |
| 20260503232503 | 52 | 293 | 3.0 | 12.0 | 0.00 | 0.03 | 0.03 | 44 | 1007.9 |
| 20260503232003 | 52 | 291 | 3.0 | 12.0 | 0.00 | 0.03 | 0.03 | 44 | 1007.8 |
| 20260503231504 | 52 | 292 | 3.0 | 13.0 | 0.00 | 0.03 | 0.03 | 44 | 1007.8 |
| 20260503231024 | 52 | 296 | 4.0 | 13.0 | 0.00 | 0.03 | 0.03 | 44 | 1007.7 |
| 20260503230503 | 52 | 293 | 4.0 | 11.0 | 0.00 | 0.03 | 0.03 | 41 | 1007.7 |
| 20260503230004 | 53 | 286 | 5.0 | 18.0 | 0.00 | 0.03 | 0.03 | 44 | 1007.6 |
| 20260503225504 | 53 | 292 | 6.0 | 18.0 | 0.00 | 0.03 | 0.03 | 43 | 1007.4 |
| 20260503225003 | 53 | 301 | 7.0 | 19.0 | 0.00 | 0.03 | 0.03 | 42 | 1007.5 |
| 20260503224503 | 52 | 302 | 7.0 | 19.0 | 0.00 | 0.03 | 0.03 | 41 | 1007.3 |
| 20260503224003 | 53 | 300 | 8.0 | 18.0 | 0.00 | 0.03 | 0.03 | 41 | 1007.2 |
| 20260503223503 | 53 | 296 | 7.0 | 20.0 | 0.00 | 0.03 | 0.03 | 41 | 1007.1 |
| 20260503223003 | 53 | 298 | 3.0 | 20.0 | 0.00 | 0.03 | 0.03 | 42 | 1007.1 |
| 20260503222503 | 53 | 316 | 4.0 | 11.0 | 0.00 | 0.03 | 0.03 | 43 | 1007.1 |
| 20260503222003 | 54 | 312 | 7.0 | 18.0 | 0.00 | 0.03 | 0.03 | 41 | 1007.0 |
| 20260503221503 | 54 | 313 | 7.0 | 18.0 | 0.00 | 0.03 | 0.03 | 40 | 1006.9 |
| 20260503221024 | 53 | 322 | 5.0 | 11.0 | 0.00 | 0.03 | 0.03 | 41 | 1006.9 |
| 20260503220503 | 53 | 310 | 7.0 | 19.0 | 0.00 | 0.03 | 0.03 | 41 | 1006.9 |
| 20260503220003 | 53 | 304 | 8.0 | 19.0 | 0.00 | 0.03 | 0.03 | 41 | 1006.8 |
| 20260503215524 | 53 | 302 | 7.0 | 20.0 | 0.00 | 0.03 | 0.03 | 40 | 1006.8 |
| 20260503215003 | 53 | 304 | 7.0 | 20.0 | 0.00 | 0.03 | 0.03 | 43 | 1006.8 |
| 20260503214503 | 52 | 295 | 7.0 | 18.0 | 0.00 | 0.03 | 0.03 | 41 | 1006.7 |